Regional Weather Roundup
Issued by NWS

Home | Current Version | Previous Version | Graphics & Text | Print | Product List | Glossary Off
Versions: 1 2 3 4 5 6 7 8 9 10 11 12 13 14 15 16 17 18 19 20 21 22 23 24 25 26 27 28 29 30 31 32 33 34 35 36 37 38 39 40 41 42 43 44 45 46 47 48 49 50

000
ASUS43 KMKX 252021
RWRWI

WISCONSIN REGIONAL WEATHER ROUNDUP
NATIONAL WEATHER SERVICE MILWAUKEE/SULLIVAN WI
300 PM CDT SAT OCT 25 2014

NOTE: "FAIR" INDICATES FEW OR NO CLOUDS BELOW 12,000 FEET WITH NO
SIGNIFICANT WEATHER AND/OR OBSTRUCTIONS TO VISIBILITY.

WIZ001-002-006>008-014>016-023>028-252100-
NORTHWEST WISCONSIN

CITY           SKY/WX    TMP DP  RH WIND       PRES   REMARKS
SUPERIOR ARPT  SUNNY     61  28  28 W17G25    29.91F
ASHLAND        SUNNY     60  28  29 W20G31    29.89R
HAYWARD        SUNNY     61  22  22 W8G24     29.92F
SIREN          SUNNY     61  25  24 NW16      29.97F
CUMBERLAND     SUNNY     59  27  29 W22G31    29.97R
RICE LAKE      SUNNY     61  24  24 NW17G25   29.98S
CHETEK         SUNNY     61  29  28 W13G23    29.96S
LADYSMITH      SUNNY     60  27  28 W25G32    29.94F
EAU CLAIRE     SUNNY     62  27  26 W15G29    29.97S
MENOMONIE      SUNNY     62  25  24 W20G29    29.99S
NEW RICHMOND   SUNNY     62  25  24 NW18      30.01S
OSCEOLA        SUNNY     63  27  25 W15G24    30.03F
$$

WIZ003>005-009-010-017-018-252100-
NORTH CENTRAL WISCONSIN

CITY           SKY/WX    TMP DP  RH WIND       PRES   REMARKS
MANITOWISH WTR SUNNY     58  25  28 NW21G31   29.84S
ARBOR VITAE    SUNNY     59  27  29 W13G28    29.84S
WOODRUFF       SUNNY     59  27  29 W13G28    29.84S
RHINELANDER    SUNNY     58  25  28 W22G33    29.85S
EAGLE RIVER    SUNNY     58  21  24 NW16G30   29.82S
LAND O LAKES   SUNNY     58  23  26 W17G25    29.82S
PHILLIPS       SUNNY     58  27  31 NW13G24   29.89S
TOMAHAWK       SUNNY     58  25  27 W16G36    29.87F
MEDFORD        SUNNY     58  30  34 W17G26    29.91S
MERRILL        SUNNY     61  29  29 NW20      29.87S
$$

WIZ029-030-035-036-043>047-252100-
CENTRAL WISCONSIN

CITY           SKY/WX    TMP DP  RH WIND       PRES   REMARKS
WAUSAU         SUNNY     61  26  26 W22G29    29.86F
MOSINEE        SUNNY     61  28  29 NW22G30   29.89F
MARSHFIELD     SUNNY     61  27  27 NW17G31   29.92S
STEVENS POINT  SUNNY     60  29  32 W16G28    29.89S
WAUPACA        SUNNY     65  30  26 W17G23    29.88S
WAUTOMA        CLOUDY    65  30  27 NW16G28   29.90S
WISC RAPIDS    SUNNY     64  27  24 NW15G23   29.92F
CAMP DOUGLAS   SUNNY     64  30  27 W16G24    29.94F
$$

WIZ011>013-019>022-031-037>040-048>050-252100-
NORTHEAST WISCONSIN

CITY           SKY/WX    TMP DP  RH WIND       PRES   REMARKS
ANTIGO         SUNNY     59  28  31 W15G24    29.85S
SHAWANO        SUNNY     65  26  22 W10G24    29.83R
OCONTO         SUNNY     65  27  24 NW12G28   29.79R
STURGEON BAY   SUNNY     63  34  34 W18G25    29.79R
GREEN BAY      SUNNY     65  28  24 W25G31    29.81F
MANITOWOC      SUNNY     65  31  28 W20G30    29.81F
APPLETON       SUNNY     63  28  27 W24       29.86S
CLINTONVILLE   SUNNY     64  25  22 NW17G24   29.84S
OSHKOSH        SUNNY     63  31  30 W23G32    29.86S
$$

WIZ032>034-041-042-053>061-252100-
SOUTHWEST WISCONSIN

CITY           SKY/WX    TMP DP  RH WIND       PRES   REMARKS
LA CROSSE      SUNNY     68  33  27 NW12      29.98S
SPARTA         SUNNY     65  27  24 W17G23    29.97F
VIROQUA        SUNNY     64  29  26 W12G23    29.98F
BOSCOBEL       SUNNY     69  29  22 W15G22    29.98F
PRAIRIE DU CHI SUNNY     68  26  20 W17G26    29.99F
PLATTEVILLE    SUNNY     68  31  25 NW21      29.99F
$$

WIZ056-057-062-063-064-067-068-252100-
SOUTH CENTRAL WISCONSIN

CITY           SKY/WX    TMP DP  RH WIND       PRES   REMARKS
REEDSBURG      SUNNY     65  32  29 W16G22    29.94S
BARABOO/DELLS  SUNNY     66  22  18 NW13G21   29.93F
LONE ROCK      SUNNY     71  27  19 NW20G28   29.96S
MINERAL POINT  SUNNY     68  21  17 NW13G25   29.97S
MADISON        MOSUNNY   68  26  20 NW14G25   29.93S
MIDDLETON      SUNNY     69  21  16 NW16G25   29.94S
WATERTOWN      SUNNY     67  30  25 W15G25    29.90F
MONROE         SUNNY     68  34  28 W16G24    29.95F
JANESVILLE     SUNNY     70  28  21 W17G23    29.92F
$$

WIZ051-052-058>065-066-070>072-252100-
SOUTHEAST WISCONSIN

CITY           SKY/WX    TMP DP  RH WIND       PRES   REMARKS
MILWAUKEE      MOSUNNY   68  23  18 W23G29    29.88S
WAUKESHA       SUNNY     64  27  24 W21G32    29.90F
MILWAUKEE/TIMM SUNNY     68  21  17 W17G29    29.88F
RACINE         SUNNY     69  30  23 W14G24    29.90F
BURLINGTON     SUNNY     67  29  23 W20G25    29.90F
KENOSHA        SUNNY     69  31  24 W21G33    29.90S
FOND DU LAC    SUNNY     65  29  25 NW22G32   29.88R
SHEBOYGAN      SUNNY     64  30  27 W21G36    29.85S
WEST BEND      SUNNY     64  25  22 W22G37    29.88R
JUNEAU         SUNNY     65  28  24 W16G29    29.90F
$$

LSZ147-162-252100-
LAKE SUPERIOR

STATION/POSITION TIME  TEMP    WIND        PRES    WAVE
                       AIR SEA DIR/SP/G            HT/PER
                 (UTC) (F)     (DEG/KT/KT) (MB)    (FT/S)
W MID LAKE BUOY  1950   49 46  260/ 19/ 23 1008.3R   6/ 6
DEVILS ISLAND    2000   52     250/ 17/ 20 1010.9R
PORT WING        1900   55     250/ 14/ 22 1012.5R
SAXON HARBOR     1900   59     280/ 13/ 25 1011.2S
$$

LMZ867-665-643>646-252100-
LAKE MICHIGAN

STATION/POSITION TIME  TEMP    WIND        PRES    WAVE
                       AIR SEA DIR/SP/G            HT/PER
                 (UTC) (F)     (DEG/KT/KT) (MB)    (FT/S)
CHAMBERS ISLAND  1900   63     300/  5/ 12 1007.8S
N MID LAKE BUOY  1950   55 51  280/ 12/ 16 1006.8R   2/ 4
NORTHPORT PIER   1900   59     300/ 11/ 17 1006.8F
ALGOMA LAKESHORE 1911          330/ 14/ 23   N/A
KEWAUNEE LAKESHO 2000   64     280/ 15/ 24 1007.9F
SHEBOYGAN LAKESH 2000   64 51  290/ 24/ 29 1010.6F
PORT WASHINGTON  1900   67     280/ 11/ 25 1011.5F
ATWATER BUOY     2000   65     280/ 19/ 29 1012.6S
MILWAUKEE LAKESH 2000   67     280/ 19/ 28   N/A
S MID LAKE BUOY  1950   58 54  250/ 10/ 12 1011.8F   1/ 4
KENOSHA   LAKESH 2000   69     270/ 16/ 24 1012.2R
$$

TC  - TEMPERATURE IN CELSIUS
VSB - VISIBILITY IN STATUTE MILES
WCI - WIND CHILL INDEX
HX  - HEAT INDEX




USA.gov is the U.S. government's official web portal to all federal, state and local government web resources and services.